Weather History for KCSM - April, 2014

Change the Weather History Date:

Thursday, April 24, 2014

  Actual Average Record
Temperature  
Mean Temperature 66 °F -  
Max Temperature 75 °F - - ()
Min Temperature 55 °F - - ()
Cooling Degree Days 1    
Growing Degree Days 16 (Base 50)    
Moisture  
Dew Point 45 °F    
Average Humidity 52    
Maximum Humidity 87    
Minimum Humidity 21    
Precipitation  
Precipitation 0.00 in - - ()
Sea Level Pressure  
Sea Level Pressure 29.78 in    
Wind  
Wind Speed 19 mph (NW)    
Max Wind Speed 31 mph    
Max Gust Speed 43 mph    
Visibility 10 miles    
Events      
T = Trace of Precipitation, MM = Missing Value Source: NWS Daily Summary

Daily Weather History Graph

Daily Weather History Graph

Search for Another Location

Airport or City:

Trip Planner

Search our weather history database for the weather conditions in past years. The results will help you decide how hot, cold, wet, or windy it might be!

Date:

Astronomy

Apr. 24, 2014 Rise Set
Actual Time 6:53 AM CDT 8:17 PM CDT
Civil Twilight 6:26 AM CDT 8:43 PM CDT
Nautical Twilight 5:54 AM CDT 9:15 PM CDT
Astronomical Twilight 5:21 AM CDT 9:49 PM CDT
Moon 3:54 AM CDT (4/24) 3:44 PM CDT (4/24)
Length of Visible Light 14h 17m
Length of Day
13h 23m
Waning Crescent, 24% of the Moon is Illuminated
Apr 24
Waning Crescent
Apr 29
New
May 6
First Quarter
May 14
Full
May 21
Last Quarter

Hourly Weather History & Observations

Time (CDT) Temp. Dew Point Humidity Pressure Visibility Wind Dir Wind Speed Gust Speed Precip Events Conditions
12:53 AM 66.0 °F 59.0 °F 78% 29.59 in 10.0 mi SSE 20.7 mph 31.1 mph N/A   Clear
1:53 AM 66.9 °F 60.1 °F 79% 29.56 in 10.0 mi SSE 21.9 mph 29.9 mph N/A   Clear
2:53 AM 66.0 °F 60.1 °F 81% 29.55 in 10.0 mi South 20.7 mph 29.9 mph N/A   Clear
3:53 AM 66.0 °F 60.1 °F 81% 29.55 in 10.0 mi South 20.7 mph 27.6 mph N/A   Clear
4:53 AM 64.0 °F 60.1 °F 87% 29.57 in 10.0 mi SSW 16.1 mph - N/A   Clear
5:53 AM 63.0 °F 53.1 °F 70% 29.61 in 8.0 mi West 17.3 mph 26.5 mph N/A   Clear
6:53 AM 57.9 °F 52.0 °F 81% 29.64 in 10.0 mi North 24.2 mph 31.1 mph N/A   Partly Cloudy
7:53 AM 57.9 °F 48.9 °F 72% 29.73 in 10.0 mi NNW 24.2 mph 36.8 mph N/A   Clear
8:53 AM 60.1 °F 46.0 °F 60% 29.78 in 10.0 mi NNW 31.1 mph 42.6 mph N/A   Clear
9:53 AM 63.0 °F 39.0 °F 41% 29.81 in 10.0 mi NNW 29.9 mph 41.4 mph N/A   Clear
10:53 AM 64.9 °F 39.0 °F 39% 29.83 in 10.0 mi NNW 26.5 mph 39.1 mph N/A   Clear
11:53 AM 68.0 °F 39.0 °F 35% 29.86 in 10.0 mi NNW 21.9 mph 38.0 mph N/A   Clear
12:53 PM 70.0 °F 41.0 °F 35% 29.87 in 10.0 mi NNW 20.7 mph 33.4 mph N/A   Clear
1:53 PM 71.1 °F 39.0 °F 31% 29.87 in 10.0 mi NNW 20.7 mph 31.1 mph N/A   Partly Cloudy
2:53 PM 73.0 °F 39.0 °F 29% 29.87 in 10.0 mi NNW 17.3 mph 28.8 mph N/A   Clear
3:53 PM 75.0 °F 34.0 °F 22% 29.84 in 10.0 mi NW 19.6 mph 27.6 mph N/A   Clear
4:53 PM 73.9 °F 30.9 °F 21% 29.86 in 10.0 mi NNW 15.0 mph 26.5 mph N/A   Clear
5:53 PM 72.0 °F 32.0 °F 23% 29.87 in 10.0 mi NW 9.2 mph 24.2 mph N/A   Clear
6:53 PM 69.1 °F 34.0 °F 27% 29.88 in 10.0 mi NNW 6.9 mph - N/A   Clear
7:53 PM 68.0 °F 37.0 °F 32% 29.89 in 10.0 mi North 4.6 mph - N/A   Clear
8:53 PM 57.9 °F 46.0 °F 65% 29.91 in 10.0 mi South 3.5 mph - N/A   Clear
9:53 PM 59.0 °F 43.0 °F 55% 29.93 in 10.0 mi SE 3.5 mph - N/A   Clear
10:53 PM 59.0 °F 39.9 °F 49% 29.94 in 10.0 mi SE 4.6 mph - N/A   Clear
11:53 PM 55.9 °F 39.0 °F 53% 29.94 in 10.0 mi SE 8.1 mph - N/A   Clear